TimeMST,TemperatureF,Dew PointF,Humidity,Sea Level PressureIn,VisibilityMPH,Wind Direction,Wind SpeedMPH,Gust SpeedMPH,PrecipitationIn,Events,Conditions,WindDirDegrees,DateUTC
12:51 AM,27.0,19.9,75,29.92,10.0,SE,6.9,-,N/A,,Overcast,140,2012-12-23 07:51:00
1:51 AM,26.1,21.0,81,29.94,10.0,ESE,4.6,-,N/A,,Overcast,120,2012-12-23 08:51:00
2:51 AM,25.0,21.0,85,29.95,3.0,South,4.6,-,0.00,Snow,Light Snow,180,2012-12-23 09:51:00
3:51 AM,26.1,24.1,92,29.95,2.0,SSE,6.9,-,0.00,Snow,Light Snow,160,2012-12-23 10:51:00
4:18 AM,26.6,24.8,93,29.88,1.5,SSE,3.5,-,0.01,Snow,Light Snow,160,2012-12-23 11:18:00
4:42 AM,26.6,24.8,93,29.87,0.8,SE,3.5,-,0.02,Snow,Light Snow,140,2012-12-23 11:42:00
4:51 AM,26.1,23.0,88,29.96,1.0,SE,3.5,-,0.03,Snow,Light Snow,140,2012-12-23 11:51:00
4:59 AM,24.8,23.0,93,29.87,1.5,SE,3.5,-,0.00,Snow,Light Snow,140,2012-12-23 11:59:00
5:11 AM,26.6,23.0,86,29.87,2.0,SE,4.6,-,0.01,Snow,Light Snow,140,2012-12-23 12:11:00
5:27 AM,24.8,23.0,93,29.87,5.0,SE,4.6,-,0.01,Snow,Light Snow,130,2012-12-23 12:27:00
5:51 AM,25.0,23.0,92,29.97,10.0,Calm,Calm,-,0.01,,Overcast,0,2012-12-23 12:51:00
6:00 AM,26.6,21.2,80,29.88,10.0,SSE,4.6,-,N/A,,Overcast,150,2012-12-23 13:00:00
6:51 AM,26.1,23.0,88,29.99,5.0,South,4.6,-,0.00,Snow,Light Snow,180,2012-12-23 13:51:00
7:01 AM,24.8,23.0,93,29.90,2.0,South,4.6,-,0.00,Snow,Light Snow,190,2012-12-23 14:01:00
7:08 AM,24.8,23.0,93,29.90,1.8,South,3.5,-,0.00,Snow,Light Snow,170,2012-12-23 14:08:00
7:14 AM,24.8,23.0,93,29.90,2.0,Calm,Calm,-,0.00,Snow,Light Snow,0,2012-12-23 14:14:00
7:27 AM,24.8,21.2,86,29.90,4.0,SE,8.1,-,0.00,Snow,Light Snow,130,2012-12-23 14:27:00
7:45 AM,24.8,21.2,86,29.89,9.0,ESE,5.8,-,0.00,,Overcast,120,2012-12-23 14:45:00
7:51 AM,25.0,21.9,88,29.99,6.0,ESE,5.8,-,0.00,Snow,Light Snow,120,2012-12-23 14:51:00
8:02 AM,24.8,21.2,86,29.89,4.0,ESE,4.6,-,0.00,Snow,Light Snow,120,2012-12-23 15:02:00
8:51 AM,24.1,21.0,88,29.98,10.0,Calm,Calm,-,0.00,,Overcast,0,2012-12-23 15:51:00
9:51 AM,26.1,21.9,84,29.99,10.0,SSE,4.6,-,N/A,,Overcast,150,2012-12-23 16:51:00
10:51 AM,25.0,21.0,85,30.00,10.0,South,9.2,-,N/A,,Overcast,190,2012-12-23 17:51:00
11:51 AM,26.1,21.0,81,29.95,10.0,SSE,5.8,-,N/A,,Mostly Cloudy,150,2012-12-23 18:51:00
12:51 PM,26.1,21.0,81,29.92,10.0,SSE,9.2,-,N/A,,Overcast,150,2012-12-23 19:51:00
1:51 PM,27.0,19.9,75,29.87,10.0,SSE,4.6,-,N/A,,Overcast,150,2012-12-23 20:51:00
2:51 PM,28.0,19.9,72,29.82,10.0,SSE,10.4,-,N/A,,Overcast,160,2012-12-23 21:51:00
3:51 PM,27.0,21.9,81,29.78,10.0,SSE,10.4,-,0.00,,Overcast,160,2012-12-23 22:51:00
4:24 PM,26.6,24.8,93,29.68,2.5,SSE,10.4,-,0.00,Snow,Light Snow,160,2012-12-23 23:24:00
4:34 PM,26.6,24.8,93,29.67,1.8,SSE,9.2,-,0.00,Snow,Light Snow,160,2012-12-23 23:34:00
4:40 PM,26.6,24.8,93,29.67,1.0,SSE,10.4,-,0.00,Snow,Light Snow,160,2012-12-23 23:40:00
4:51 PM,26.1,24.1,92,29.75,0.8,SSE,10.4,-,0.00,Snow,Light Snow,150,2012-12-23 23:51:00
4:59 PM,26.6,24.8,93,29.66,0.5,SSE,8.1,-,0.01,Fog-Snow,Snow,160,2012-12-23 23:59:00
5:20 PM,26.6,24.8,93,29.65,0.8,SSE,9.2,-,0.03,Snow,Light Snow,150,2012-12-24 00:20:00
5:51 PM,26.1,24.1,92,29.73,0.5,SSE,9.2,-,0.08,Fog-Snow,Snow,150,2012-12-24 00:51:00
6:04 PM,26.6,24.8,93,29.62,1.2,SSE,11.5,-,0.01,Snow,Light Snow,150,2012-12-24 01:04:00
6:16 PM,26.6,24.8,93,29.62,1.2,SSE,10.4,-,0.02,Snow,Light Snow,150,2012-12-24 01:16:00
6:37 PM,26.6,24.8,93,29.61,1.2,SSE,9.2,-,0.03,Snow,Light Snow,160,2012-12-24 01:37:00
6:51 PM,27.0,24.1,89,29.69,1.2,South,12.7,-,0.04,Snow,Light Snow,170,2012-12-24 01:51:00
6:59 PM,26.6,24.8,93,29.60,1.0,SSE,9.2,-,0.01,Snow,Light Snow,160,2012-12-24 01:59:00
7:05 PM,26.6,24.8,93,29.60,0.8,SSE,9.2,-,0.02,Snow,Light Snow,150,2012-12-24 02:05:00
7:22 PM,26.6,24.8,93,29.59,1.2,SE,13.8,21.9,0.04,Snow,Light Snow,140,2012-12-24 02:22:00
7:39 PM,28.4,24.8,86,29.59,1.5,SE,16.1,-,0.05,Snow,Light Snow,140,2012-12-24 02:39:00
7:51 PM,28.0,25.0,88,29.67,1.8,SSE,16.1,-,0.06,Snow,Light Snow,150,2012-12-24 02:51:00
8:08 PM,28.4,24.8,86,29.59,0.8,SSE,8.1,-,0.02,Snow,Light Snow,150,2012-12-24 03:08:00
8:16 PM,28.4,24.8,86,29.59,0.8,SSE,8.1,-,0.03,Snow,Light Snow,150,2012-12-24 03:16:00
8:25 PM,28.4,26.6,93,29.59,1.0,SSE,5.8,-,0.04,Snow,Light Snow,150,2012-12-24 03:25:00
8:44 PM,28.4,26.6,93,29.58,1.5,SSE,13.8,18.4,N/A,Snow,Light Snow,150,2012-12-24 03:44:00
8:51 PM,30.0,26.1,85,29.66,3.0,SE,13.8,19.6,0.06,Snow,Light Snow,140,2012-12-24 03:51:00
9:02 PM,30.2,26.6,86,29.58,6.0,SSE,13.8,23.0,0.00,Snow,Light Snow,150,2012-12-24 04:02:00
9:26 PM,30.2,26.6,86,29.59,5.0,SE,13.8,-,0.01,Snow,Light Snow,140,2012-12-24 04:26:00
9:51 PM,30.9,28.0,89,29.66,6.0,SSE,12.7,-,0.01,Snow,Light Snow,160,2012-12-24 04:51:00
10:51 PM,30.9,28.0,89,29.68,6.0,South,6.9,-,0.01,Snow,Light Snow,180,2012-12-24 05:51:00
11:17 PM,30.2,28.4,93,29.61,1.8,South,11.5,-,0.01,Snow,Light Snow,190,2012-12-24 06:17:00
11:29 PM,30.2,28.4,93,29.61,2.0,South,6.9,-,0.02,Snow,Light Snow,180,2012-12-24 06:29:00
11:41 PM,30.2,28.4,93,29.62,1.2,SW,5.8,-,0.02,Snow,Light Snow,220,2012-12-24 06:41:00
11:46 PM,30.2,28.4,93,29.62,0.8,SSW,6.9,-,0.03,Snow,Light Snow,210,2012-12-24 06:46:00
11:51 PM,30.0,28.9,96,29.70,0.8,SSW,5.8,-,0.04,Snow,Light Snow,200,2012-12-24 06:51:00
11:53 PM,30.2,28.4,93,29.63,1.0,SSW,5.8,-,0.00,Snow,Light Snow,210,2012-12-24 06:53:00
11:55 PM,30.2,28.4,93,29.63,1.2,SSW,5.8,-,0.00,Snow,Light Snow,210,2012-12-24 06:55:00